Temp
78 81 82 83 84 86 88 91 91 84 83 84 86 85 82 84 85 83 82 80 81 86
77 77 78 78 79 85 83 86 86 88 83 84 85 86 84 84 83 83 81 80 80 81
80 79 79 79 78 79 81 84 84 86 85 85 85 86 83 83 82 79 82 83 78 78
79 79 79 79 80 80 80 81 83 85 85 83 83 84 82 81 82 81 81 82 79 78
79 79 78 79 79 80 81 82 82 82 80 83 83 82 82 81 85 83 82 79 81 81
78 77 77 78 79 81 82 83 85 87 86 87 87 85 84 84 86 85 84 83 81 81
77 77 77 79 80 81 82 84 86 86 88 89 88 88 86 85 86 85 85 83 82 81
77 77 77 78 80 82 82 85 86 87 87 89 90 90 87 86 85 83 83 81 81 81
76 77 77 77 79 81 82 83 85 86 88 87 90 66 64 78 84 83 81 78 80 81
75 76 76 78 79 79 80 81 82 84 87 86 86 56 56 62 84 81 79 79 78 79
75 76 77 77 78 77 80 79 80 82 85 85 81 52 54 58 81 80 80 80 80 78
73 72 75 76 76 77 78 78 80 83 84 81 71 50 54 65 79 79 79 80 79 79
70 68 71 73 74 76 77 77 80 79 79 68 72 49 53 64 82 77 78 77 74 53
67 67 70 70 71 72 74 73 74 74 73 74 71 63 49 50 79 78 78 77 73 73
MSLP
1004.39 1003.82 1003.74 1003.19 1003.02 1002.68 1002.29 1001.50 1001.22 1002.25 1003.28 1004.08 1004.07 1004.65 1004.96 1004.84 1005.42 1005.40 1005.43 1005.84 1005.92 1005.82
1003.99 1003.81 1003.42 1003.11 1002.95 1002.31 1002.33 1002.20 1001.74 1002.03 1003.00 1003.49 1003.76 1003.46 1003.88 1004.22 1004.21 1004.86 1004.73 1005.15 1005.53 1005.86
1002.71 1002.88 1002.82 1002.86 1002.67 1002.42 1002.13 1001.81 1001.73 1001.63 1002.25 1002.58 1002.56 1002.85 1002.64 1003.01 1003.70 1004.08 1004.28 1004.54 1004.93 1005.49
1002.04 1002.07 1002.14 1002.04 1002.03 1001.88 1001.85 1001.74 1001.36 1001.13 1001.43 1001.76 1001.71 1001.83 1002.23 1002.65 1002.82 1003.21 1003.74 1003.93 1004.16 1004.91
1001.57 1001.53 1001.48 1001.37 1001.38 1001.36 1000.95 1000.75 1000.64 1000.90 1001.04 1000.68 1000.88 1001.23 1001.85 1002.00 1001.87 1002.54 1003.03 1003.47 1003.72 1004.21
1000.88 1000.88 1000.79 1000.73 1000.57 1000.40 1000.10 999.79 999.55 999.32 999.32 999.28 999.70 1000.27 1000.92 1001.18 1001.21 1001.75 1002.34 1002.86 1003.34 1003.79
1000.39 1000.35 1000.23 999.76 999.30 999.31 999.30 998.87 998.57 998.46 998.24 998.30 998.78 999.40 1000.10 1000.25 1000.62 1001.21 1001.86 1002.46 1002.99 1003.46
999.85 999.70 999.35 999.00 998.62 998.31 998.24 998.06 997.92 997.48 997.47 997.51 997.91 998.46 998.89 999.39 1000.27 1001.03 1001.70 1002.36 1002.91 1003.23
998.97 998.69 998.39 998.24 997.97 997.58 997.35 997.20 996.95 996.79 996.78 997.02 997.38 997.90 998.74 999.20 999.84 1000.89 1001.55 1002.07 1002.68 1003.11
998.18 997.82 997.53 997.21 996.97 996.69 996.36 996.53 996.29 996.38 996.36 996.82 997.63 998.31 999.00 999.51 1000.05 1000.82 1001.46 1002.08 1002.57 1003.02
997.23 996.79 996.22 996.13 995.83 995.68 995.49 995.59 995.87 996.00 996.01 996.69 997.83 999.07 999.31 999.88 1000.36 1000.91 1001.44 1001.84 1002.27 1002.81
996.52 996.36 995.68 995.28 994.98 994.98 995.01 995.11 995.23 995.43 995.69 996.64 998.58 999.25 999.41 1000.11 1000.48 1000.94 1001.36 1001.67 1002.27 1002.82
995.96 996.10 995.39 995.06 994.59 994.49 994.59 994.50 994.69 994.96 995.38 996.98 998.39 999.78 999.63 999.97 1000.04 1000.92 1001.39 1001.92 1002.94 1003.65
995.32 995.44 995.03 994.87 994.37 994.36 994.09 994.25 994.71 995.14 996.00 996.87 998.17 999.53 1000.16 1000.69 1000.35 1000.55 1001.11 1001.85 1002.90 1003.52
Wind_Speed
10 9 10 11 10 10 11 11 7 16 16 16 15 16 14 11 11 12 11 12 10 10
10 11 11 12 11 10 10 11 12 9 14 15 16 14 14 11 12 12 10 11 10 11
11 11 11 11 12 12 12 11 12 11 11 13 14 15 13 12 12 11 10 10 10 10
12 12 12 11 12 12 13 14 15 14 14 16 15 14 13 13 13 14 12 12 12 12
12 13 12 12 12 13 14 13 14 14 15 14 14 14 15 15 14 15 14 12 11 13
13 13 13 14 14 14 14 14 15 16 16 17 16 16 17 16 15 14 13 13 13 13
13 13 14 15 14 15 16 16 16 16 18 17 17 17 18 16 13 12 12 10 11 12
15 15 16 16 16 15 15 16 18 16 17 15 14 13 16 14 13 11 11 10 10 10
18 17 16 16 16 15 16 16 16 16 16 15 13 14 14 12 11 13 11 8 9 8
19 18 19 18 18 17 15 14 14 15 15 14 15 16 14 13 11 10 9 11 10 10
20 19 20 17 18 14 14 14 14 15 14 14 10 12 17 12 11 10 11 11 9 8
17 18 20 18 18 13 14 13 14 15 15 14 12 11 18 14 12 11 10 8 8 7
15 16 18 18 18 13 14 13 13 16 14 15 16 10 17 12 10 11 9 7 8 9
13 16 18 18 14 15 14 11 13 14 13 15 17 13 9 4 6 8 8 8 6 6
Wind_Direction
273 269 262 253 248 264 257 274 262 189 204 213 213 210 223 210 226 216 205 232 223 256
272 267 274 291 294 267 244 263 276 208 200 212 220 219 206 222 207 221 201 211 219 234
281 265 256 256 263 271 277 270 250 258 220 225 222 222 203 205 209 203 207 218 191 218
285 277 265 257 256 257 254 255 255 237 232 224 221 213 204 209 206 199 205 212 186 200
278 280 268 258 253 255 254 242 233 237 227 224 216 206 204 204 209 195 204 202 204 206
266 269 268 255 253 253 258 253 247 236 228 220 213 202 202 203 213 192 205 201 207 214
268 267 267 270 254 250 249 251 245 236 233 221 211 202 201 203 204 194 203 202 205 210
264 264 261 263 262 251 247 247 240 234 227 219 212 202 197 197 191 189 201 194 208 210
262 266 260 259 255 254 243 245 238 236 221 214 211 178 179 186 182 188 197 181 193 184
261 261 256 251 251 249 236 237 233 234 218 210 207 153 143 157 177 182 170 185 192 196
259 262 252 251 259 248 240 227 226 225 211 204 151 149 134 153 160 180 178 186 189 202
264 265 267 254 255 241 241 222 215 214 199 176 151 157 140 162 161 173 178 181 194 187
247 258 255 260 261 245 230 214 210 204 185 148 154 177 154 181 176 161 182 166 117 68
250 256 257 254 249 237 211 203 199 178 144 152 157 164 173 103 181 170 174 161 183 138